Hourly Data Report for November 02, 2019

SHEARWATER RCS
NOVA SCOTIA
Current Station Operator: ECCC - MSC

44°37'47.000" N
63°30'48.000" W
24.00 m
8205092
71264
AAW

Download Data

Hourly Data (November 2019)
Hourly Data Report for November 2, 2019
TIME
LST
Temp Definition
°C
Dew Point Definition
°C
Rel Hum Definition
%
Precip. Amount Definition
mm

Wind Dir Definition
10's deg

Wind Spd Definition
km/h
Visibility Definition
km
Stn Press Definition
kPa
Hmdx Definition


Wind Chill Definition


Weather Definition


00:00 9.0 1.7 60 0.0 27 14   101.18     LegendNANA
01:00 8.2 0.1 57 0.0 28 15   101.29     LegendNANA
02:00 7.2 -0.5 58 0.0 28 12   101.38     LegendNANA
03:00 6.4 -0.7 60 0.0 28 13   101.48     LegendNANA
04:00 5.6 -1.1 62 0.0 29 10   101.58     LegendNANA
05:00 5.2 -1.6 61 0.0 29 13   101.64     LegendNANA
06:00 4.6 -1.6 64 0.0 30 10   101.71     LegendNANA
07:00 4.3 -1.9 64 0.0 29 13   101.77     LegendNANA
08:00 4.9 -1.6 63 0.0 30 10   101.87     LegendNANA
09:00 5.8 -1.6 59 0.0 31 10   101.93     LegendNANA
10:00 7.0 -1.8 54 0.0 31 8   101.94     LegendNANA
11:00 8.1 -1.4 51 0.0 1 7   101.93     LegendNANA
12:00 8.7 -1.0 51 0.0 27 9   101.90     LegendNANA
13:00 9.4 -1.7 46 0.0 25 7   101.88     LegendNANA
14:00 10.1 -1.7 44 0.0 25 7   101.89     LegendNANA
15:00 8.3 0.4 57 0.0 17 18   101.88     LegendNANA
16:00 7.8 0.3 59 0.0 17 15   101.92     LegendNANA
17:00 6.6 0.3 64 0.0 18 10   101.92     LegendNANA
18:00 5.8 0.8 70 0.0 20 8   101.93     LegendNANA
19:00 5.0 0.6 73 0.0 16 2   101.91     LegendNANA
20:00 3.2 0.2 81 0.0 0 1   101.87     LegendNANA
21:00 3.5 1.0 84 0.0 4 4   101.82     LegendNANA
22:00 2.8 0.6 85 0.0 8 6   101.77     LegendNANA
23:00 3.0 0.7 85 0.0 7 9   101.69     LegendNANA

Notes on Data Quality.

Legend

  • E = Estimated
  • M = Missing
  • NA = Not Available*
  • [empty] = Indicates an unobserved value
Date modified: